sat.trackr.live / text

‹ back to catalog

ONEWEB-0262

NORAD 48980 · 2021-060P

PAYLOAD ACTIVE UNKNOWN

§ Identity

Operator
Country
UK
Launch date
2021-07-01
Launch site
VOSTO
Launch vehicle
Mass (kg)
RCS (m²)

Purposes: comms

External: N2YO · Heavens-Above · Gunter

§ Orbital elements

Epoch: 2026-09-15T20:32:21.232320Z

Period
109.37 min
Inclination
87.9147°
Eccentricity
0.0001819
Mean motion
13.16593770 rev/d
Perigee alt
1,196.4 km
Apogee alt
1,199.1 km
Semi-major
7,575.9 km
B*
1.8858e-4
RAAN
210.7674°
Arg perigee
71.9673°
Mean anomaly
288.1656°
Rev number
25,155

§ Raw data

ONEWEB-02621 48980U 21060P   26258.85580130  .00000085  00000+0  18858-3 0  99962 48980  87.9147 210.7674 0001819  71.9673 288.1656 13.16593770251552

JSON: /api/v1/satellites/48980 · /tle

For live sub-satellite position, see the globe view (requires WebGL).

§ Visibility from observer

Set your observer location to see the next 7 days of passes ≥ 10°. The values pass through the URL so the page stays shareable.

No JS? Fill the form by hand. The geolocation button needs JavaScript.